Wetbulb
41.67 36.31 34.94 39.03 39.76 38.36 36.38 34.79 33.93 39.94 41.99 40.11 40.56 39.78 41.85 43.88 41.21 40.22 42.91 43.89 44.57 44.73 46.81 44.07 45.37 45.34 43.94 40.89 39.56 39.00 38.45 38.81 39.04 37.67 36.11 34.96 35.96 34.22 33.54 34.02 35.21 34.69 34.26 34.22
38.25 34.96 40.75 40.84 40.71 38.96 37.52 35.62 35.29 39.47 40.13 38.71 38.52 38.82 41.78 41.22 42.91 43.89 42.60 43.97 44.99 45.70 42.90 43.26 42.40 42.44 41.87 39.44 39.30 38.71 38.81 38.38 38.97 38.79 38.09 34.90 34.36 33.17 33.62 34.01 34.01 34.38 33.85 33.49
37.64 39.11 43.28 41.69 39.37 38.00 38.13 35.63 36.76 35.97 38.74 37.11 35.14 33.42 37.28 40.90 42.29 44.19 45.29 45.28 45.79 45.20 42.17 40.72 40.25 41.83 41.26 38.91 38.23 38.60 38.51 38.32 38.83 37.90 36.38 33.07 33.03 32.15 31.80 32.02 32.57 33.02 33.35 32.80
37.60 42.15 40.64 38.03 37.27 39.48 35.99 39.08 38.55 37.12 32.31 31.29 33.64 29.53 34.82 38.06 39.45 40.72 43.28 43.85 43.61 40.26 40.94 40.18 40.32 38.10 39.58 39.70 39.06 39.13 38.16 37.72 38.11 37.17 36.73 34.34 34.71 33.75 34.80 35.14 33.02 31.79 32.62 31.76
37.03 36.77 36.25 36.65 39.03 39.39 37.83 37.77 36.20 34.02 32.01 30.30 31.89 29.17 32.76 37.50 36.34 39.49 42.59 43.65 43.99 41.92 40.96 39.70 40.78 41.87 40.71 39.15 38.38 38.49 37.65 37.37 37.74 36.73 37.38 35.64 34.01 34.52 29.33 29.91 31.26 30.27 30.64 30.94
36.66 38.25 38.59 38.44 37.08 38.58 37.90 34.57 33.57 31.59 29.56 26.24 30.41 31.27 32.00 33.01 37.46 38.20 42.09 42.63 43.24 41.86 41.22 41.30 41.31 39.61 38.36 37.18 37.74 37.58 36.86 36.77 37.15 36.69 36.34 35.16 33.97 30.39 28.32 29.58 30.86 30.38 30.07 29.21
33.54 36.14 37.65 39.30 35.14 35.09 34.54 32.04 24.39 22.48 21.23 25.26 32.64 28.86 35.68 37.17 38.16 39.96 41.28 41.76 42.98 39.86 39.13 37.23 37.62 38.12 37.07 35.52 36.37 36.89 36.24 35.72 36.20 36.31 35.25 34.55 33.93 31.80 30.66 30.19 31.15 29.32 28.72 27.27
29.57 30.89 35.09 37.85 38.34 34.44 32.06 34.13 25.55 17.89 23.47 29.89 27.47 25.01 32.27 39.67 41.59 40.95 41.43 42.39 39.86 39.62 39.00 37.92 38.23 38.14 36.84 36.75 35.70 36.58 35.47 35.88 35.55 35.48 34.75 34.28 33.01 32.85 32.44 31.15 31.11 30.59 29.96 28.44
30.64 30.75 35.05 35.33 36.05 37.90 31.97 29.74 35.46 27.60 15.11 20.66 31.73 32.85 37.19 36.93 38.67 38.59 39.12 36.03 38.37 38.72 37.72 37.79 36.08 36.92 36.69 36.44 36.41 36.41 35.89 36.38 35.52 34.93 34.72 33.61 32.79 33.09 31.88 30.22 29.93 29.48 28.45 27.64
36.81 31.66 36.67 34.14 34.81 33.40 33.63 34.80 27.45 27.45 17.97 14.90 29.28 25.67 32.91 36.91 40.16 41.68 35.71 36.88 37.18 37.71 38.01 37.79 37.13 37.18 36.61 37.10 36.94 36.47 36.84 36.11 35.49 34.47 34.35 33.50 32.57 32.77 31.98 29.20 28.58 27.06 26.63 26.07
36.24 34.99 34.59 32.16 30.40 31.62 29.58 30.64 31.69 31.29 28.01 26.28 25.42 30.25 34.39 35.39 35.48 35.82 36.49 36.97 37.15 37.81 37.61 38.41 39.10 38.29 37.67 36.15 35.66 35.89 35.32 34.80 34.21 33.16 33.29 32.53 31.40 30.79 29.37 29.06 27.81 26.47 25.64 24.37
37.29 34.02 28.87 31.83 34.50 33.82 34.48 33.94 34.32 29.27 27.33 27.05 28.72 30.52 41.88 38.51 37.46 37.21 38.52 38.34 37.83 39.18 39.76 38.45 38.10 38.78 35.77 35.67 34.86 35.09 35.13 34.47 34.37 33.96 32.08 31.24 29.15 27.62 27.94 27.41 25.68 24.58 24.45 23.50
38.81 31.88 27.91 29.13 34.23 31.63 31.66 32.96 34.61 34.16 30.66 28.22 25.14 27.75 41.79 41.78 41.48 38.04 36.56 37.36 38.80 39.77 40.63 38.88 37.66 37.58 37.56 36.27 35.97 35.82 35.25 34.65 34.30 32.83 30.15 29.38 27.63 27.18 27.04 25.73 24.02 23.98 22.96 22.21
41.25 33.51 31.19 28.20 32.55 35.41 31.59 33.11 33.30 33.85 29.05 29.64 28.99 30.73 36.06 39.02 40.01 41.55 42.37 43.43 44.17 44.71 39.53 39.87 40.80 39.03 37.10 37.00 36.58 35.83 35.03 34.61 33.43 31.62 30.00 28.79 27.84 27.28 26.35 24.34 23.75 23.15 22.84 21.23
38.80 30.34 32.56 33.84 35.27 35.71 34.31 34.46 34.57 32.29 32.97 29.10 31.55 32.20 35.24 38.01 39.54 40.98 42.36 42.89 42.68 42.87 39.37 39.86 39.80 37.58 37.37 36.94 35.79 35.58 35.51 33.40 32.50 31.09 30.11 29.09 28.00 26.90 24.24 23.03 22.78 22.01 21.17 20.56
38.29 32.37 34.38 31.62 33.74 33.48 31.96 33.84 34.04 33.77 33.81 33.69 34.04 33.79 40.99 42.46 43.35 42.58 43.10 43.35 42.35 42.52 43.03 40.85 39.00 38.84 35.73 35.92 36.47 35.08 34.97 32.50 31.79 31.24 29.57 28.76 25.67 24.14 22.68 22.78 21.79 20.72 19.86 18.99
35.41 32.66 31.94 28.51 32.54 31.79 27.56 32.20 33.21 33.93 35.60 35.20 30.37 35.46 40.39 40.04 40.89 41.81 42.70 43.11 42.50 43.15 43.24 39.66 38.69 37.60 35.61 35.25 35.07 34.34 33.43 31.04 30.34 30.39 28.63 25.84 23.75 22.28 22.34 21.86 20.89 19.90 18.50 18.71
34.98 32.39 31.90 29.37 31.30 22.43 31.50 36.73 36.17 34.59 36.09 37.53 37.50 38.36 40.09 40.80 42.41 43.42 44.11 41.77 42.02 43.31 40.82 38.34 37.16 37.99 35.70 34.48 32.47 34.13 28.28 28.90 29.24 28.82 26.52 23.93 22.77 22.21 21.44 20.59 19.91 18.84 18.21 17.33
37.96 34.95 30.48 27.59 27.23 30.79 31.86 34.09 33.78 32.22 32.35 37.92 36.55 38.50 36.56 35.18 39.24 40.22 38.58 38.06 36.97 36.89 37.97 38.56 37.01 37.04 35.96 34.89 32.62 28.76 27.29 27.75 27.86 26.34 24.80 23.23 22.58 21.72 19.72 18.64 18.13 17.69 17.18 16.87
36.90 37.23 32.68 30.40 25.85 23.29 32.65 34.85 37.18 37.43 28.64 31.23 30.70 29.75 30.31 31.01 26.67 30.68 34.64 37.04 36.49 36.84 36.60 34.24 33.10 33.21 32.47 28.88 26.25 26.60 25.46 25.28 25.32 25.16 24.30 23.00 22.85 21.15 19.24 18.55 17.96 17.23 16.72 16.78
26.61 29.59 27.43 28.09 26.69 28.29 28.84 29.82 34.27 26.49 21.07 28.29 31.04 30.00 28.89 27.19 30.21 33.60 34.60 33.81 34.33 33.80 34.24 35.33 31.73 28.53 27.16 24.55 24.21 23.83 22.46 23.92 23.67 22.46 21.58 20.82 20.60 20.34 19.53 17.61 17.31 16.09 16.01 16.64
21.89 19.59 19.13 21.39 21.89 21.25 29.41 27.22 18.32 24.11 28.91 31.19 27.39 27.45 26.56 27.98 29.10 29.74 30.31 30.49 31.63 31.32 32.33 33.06 30.29 31.47 24.20 23.97 24.81 23.14 22.19 20.93 20.32 19.81 18.93 18.91 19.93 18.85 17.39 15.75 14.64 15.20 15.07 14.05
20.58 19.52 17.53 20.35 17.22 22.47 29.61 26.02 28.72 30.84 28.52 28.00 26.89 25.97 26.41 26.33 27.06 28.23 28.18 29.24 30.49 30.77 30.43 31.77 29.99 31.40 24.27 24.47 25.11 25.41 23.40 21.13 20.09 18.25 17.23 17.76 17.15 16.83 15.68 14.21 13.24 12.75 12.96 12.46
20.46 24.16 18.48 17.21 21.20 22.68 24.97 27.86 28.41 27.57 25.53 26.81 26.64 24.98 25.49 25.06 26.53 26.64 27.72 29.11 29.59 29.48 29.97 31.81 32.13 30.50 28.77 24.84 24.58 25.86 22.33 21.31 18.25 16.45 16.16 15.03 15.20 14.00 14.11 14.01 13.18 12.52 11.49 11.80
18.96 20.80 15.74 16.92 21.10 22.83 24.41 26.19 24.84 24.87 24.93 23.57 22.39 21.84 21.91 23.33 23.67 24.40 24.50 25.41 27.23 28.63 29.50 30.15 30.20 31.05 30.12 27.71 24.34 25.02 21.18 20.79 19.46 18.33 14.60 13.43 14.22 12.95 12.81 13.32 13.01 12.91 14.16 14.79
22.19 19.74 16.49 14.62 23.00 19.16 20.95 22.10 22.80 18.39 18.25 18.67 18.37 18.86 20.18 18.99 18.14 19.14 19.81 21.73 22.77 23.58 25.64 27.25 28.74 29.71 29.41 30.47 27.55 25.26 22.96 19.59 18.91 15.75 14.07 13.59 12.65 12.01 11.48 11.14 11.84 17.91 16.96 19.43
MSLP
1014.24 1014.60 1014.16 1012.85 1013.28 1012.92 1013.20 1013.05 1012.81 1011.31 1011.13 1011.50 1010.88 1010.40 1009.36 1008.73 1008.98 1008.86 1008.43 1007.75 1007.21 1006.66 1005.62 1006.34 1006.69 1007.54 1008.68 1009.89 1010.99 1011.96 1013.00 1013.94 1014.84 1016.00 1016.96 1017.90 1018.23 1018.52 1018.84 1018.95 1019.09 1019.56 1020.08 1020.54
1014.23 1013.72 1012.69 1012.86 1013.10 1013.18 1013.07 1012.72 1012.20 1010.95 1010.41 1010.92 1010.31 1009.43 1008.59 1008.25 1007.57 1007.05 1007.07 1006.56 1005.82 1005.64 1005.54 1005.74 1006.29 1007.14 1007.89 1008.89 1010.09 1011.32 1012.25 1013.26 1014.09 1015.00 1015.89 1016.60 1017.27 1017.95 1018.32 1018.70 1019.07 1019.40 1019.86 1020.30
1012.66 1012.01 1012.08 1012.59 1012.76 1013.11 1012.12 1012.45 1011.46 1011.09 1010.79 1010.31 1009.91 1008.46 1007.90 1006.78 1006.37 1005.88 1005.40 1004.86 1004.63 1004.70 1005.01 1005.30 1006.13 1006.49 1007.33 1008.35 1009.23 1010.22 1011.36 1012.39 1013.16 1014.06 1015.30 1016.38 1017.37 1017.87 1018.33 1018.38 1018.64 1018.92 1019.31 1019.86
1012.34 1011.52 1011.70 1012.11 1012.29 1012.11 1010.84 1011.03 1011.10 1011.49 1011.84 1011.12 1010.31 1006.83 1006.48 1005.94 1005.63 1004.99 1004.31 1003.72 1003.23 1003.67 1004.19 1004.52 1005.49 1006.32 1006.55 1007.27 1008.57 1009.64 1010.59 1011.49 1012.47 1013.52 1014.59 1015.24 1015.49 1016.15 1016.16 1016.77 1017.81 1018.55 1019.12 1019.68
1010.81 1010.68 1010.91 1011.31 1010.54 1011.16 1009.87 1010.77 1011.17 1011.59 1012.00 1011.55 1010.45 1009.97 1005.36 1005.10 1004.93 1004.19 1003.28 1002.73 1002.36 1002.44 1003.01 1003.86 1004.59 1005.06 1005.92 1006.98 1007.93 1008.95 1010.06 1011.07 1011.75 1012.53 1013.10 1014.05 1014.87 1015.50 1016.00 1016.67 1017.44 1018.11 1018.80 1019.18
1010.99 1010.95 1010.63 1010.30 1010.70 1010.71 1010.83 1011.29 1011.90 1012.26 1012.61 1011.00 1010.88 1009.73 1002.72 1004.27 1003.36 1002.79 1002.11 1001.74 1001.60 1001.49 1002.38 1003.27 1004.00 1005.11 1006.33 1007.11 1007.88 1008.68 1009.49 1010.11 1010.71 1011.56 1012.40 1013.10 1013.86 1014.85 1015.72 1016.35 1016.93 1017.56 1018.09 1018.55
1010.42 1009.66 1009.51 1009.87 1011.12 1011.58 1011.82 1012.06 1013.00 1013.19 1013.15 1009.13 1008.22 1007.69 1002.61 1003.04 1002.31 1001.69 1001.21 1000.80 1000.49 1000.99 1002.35 1003.26 1004.18 1005.12 1005.93 1006.92 1007.49 1008.04 1008.73 1009.44 1010.16 1010.61 1011.26 1012.03 1012.88 1013.75 1014.36 1014.89 1015.71 1016.64 1017.43 1017.97
1011.24 1008.89 1009.02 1009.15 1009.34 1009.42 1010.85 1011.54 1012.38 1012.07 1011.53 1008.40 1007.71 1004.83 1002.59 1001.54 1000.88 1000.41 1000.04 999.75 1000.03 1001.12 1001.94 1002.63 1003.41 1004.36 1005.14 1005.99 1006.88 1007.44 1008.17 1008.80 1009.32 1010.04 1010.58 1011.32 1012.07 1012.71 1013.30 1013.91 1014.37 1015.17 1015.80 1016.51
1010.32 1008.50 1008.13 1008.39 1008.70 1009.19 1010.52 1010.88 1010.00 1010.85 1010.41 1009.81 1005.56 1003.27 1001.41 1000.93 1000.90 1000.46 1000.00 1000.08 1000.76 1001.08 1001.82 1002.58 1003.23 1003.88 1004.41 1005.17 1005.69 1006.22 1006.91 1007.52 1008.21 1008.95 1009.82 1010.42 1011.37 1011.93 1012.33 1013.15 1013.83 1014.40 1014.94 1015.64
1009.15 1008.61 1007.36 1008.39 1008.60 1009.15 1009.26 1009.54 1010.46 1010.66 1010.19 1008.68 1004.89 1003.31 1001.22 1001.05 1000.36 999.98 1000.21 1000.33 1000.69 1001.36 1002.24 1002.59 1003.14 1003.52 1003.90 1004.26 1004.79 1005.69 1006.17 1006.56 1007.12 1007.83 1008.59 1009.24 1009.93 1010.72 1011.59 1012.69 1013.27 1013.90 1014.59 1015.39
1010.25 1009.58 1007.37 1008.71 1008.76 1008.40 1009.38 1009.44 1009.32 1009.49 1008.33 1006.71 1005.08 1002.37 1000.93 1000.18 999.98 1000.07 1000.05 1000.52 1000.97 1001.13 1001.73 1002.09 1002.04 1002.94 1003.08 1003.94 1004.54 1004.89 1005.49 1005.99 1006.63 1007.32 1007.62 1008.35 1008.91 1009.86 1010.76 1011.77 1012.67 1013.42 1014.14 1015.00
1011.21 1011.40 1010.26 1008.46 1007.52 1008.00 1007.43 1007.36 1007.64 1008.08 1007.26 1006.52 1005.05 1002.92 999.87 1000.49 1000.37 1000.33 1000.34 999.90 999.86 1000.11 1000.47 1001.28 1001.69 1001.91 1002.34 1002.88 1003.61 1003.97 1004.45 1005.03 1005.03 1005.83 1007.16 1007.87 1008.84 1009.73 1010.46 1011.21 1012.11 1013.04 1013.97 1014.88
1010.79 1010.91 1010.75 1009.74 1008.21 1007.57 1007.34 1007.03 1007.00 1006.66 1006.73 1006.30 1005.54 1003.20 1000.85 1000.71 1000.40 1000.20 1000.53 1000.18 999.87 999.51 999.69 1000.09 1000.85 1001.10 1001.33 1001.79 1002.14 1002.43 1002.96 1003.33 1004.20 1005.23 1006.12 1007.28 1008.12 1008.78 1009.62 1010.45 1011.44 1012.44 1013.40 1014.62
1009.91 1010.07 1009.70 1008.59 1006.83 1006.33 1006.49 1006.45 1006.98 1006.71 1006.16 1005.02 1004.66 1002.38 1001.41 999.09 998.79 998.60 999.12 998.45 998.41 998.61 998.98 999.46 999.69 999.95 1000.51 1000.65 1000.95 1001.30 1001.65 1002.23 1002.98 1003.84 1004.68 1005.68 1006.72 1007.53 1008.64 1009.79 1010.59 1011.53 1012.82 1013.79
1009.72 1008.97 1008.51 1007.30 1007.11 1006.74 1005.79 1005.12 1004.51 1005.04 1004.44 1004.50 1002.63 1002.48 1001.02 997.84 998.64 997.77 997.26 997.03 997.48 997.50 998.33 998.52 998.95 999.05 999.15 999.50 999.77 1000.13 1000.29 1001.13 1001.85 1002.77 1003.55 1004.16 1005.48 1006.71 1007.82 1009.02 1009.64 1010.84 1011.96 1013.29
1008.38 1006.88 1007.17 1006.44 1006.15 1005.85 1004.99 1004.16 1004.10 1003.33 1002.19 1001.52 1001.56 1000.32 998.54 998.07 997.33 996.91 995.68 996.92 997.24 997.40 997.41 997.57 997.62 997.56 997.71 998.12 998.16 998.41 999.01 999.88 1000.70 1001.52 1002.09 1003.09 1004.32 1005.75 1006.88 1008.15 1008.77 1010.11 1011.39 1012.68
1007.12 1006.36 1005.87 1003.80 1004.33 1004.14 1003.21 1002.69 1001.12 1000.31 1000.49 999.75 999.56 997.57 996.80 997.00 996.89 996.37 995.78 996.64 996.65 996.53 996.77 997.04 997.07 996.88 996.94 996.94 996.95 997.27 997.75 998.62 999.81 1000.67 1001.64 1002.27 1003.62 1005.01 1006.56 1007.34 1008.23 1009.06 1010.10 1011.76
1006.56 1005.90 1004.64 1002.66 1003.02 1000.22 999.23 1000.14 1000.19 999.56 998.75 998.36 997.82 997.65 997.25 996.83 996.26 996.42 997.11 997.59 997.07 996.94 996.79 996.51 996.68 996.32 995.83 995.56 996.03 996.27 997.20 998.04 999.05 1000.09 1001.04 1001.93 1002.61 1004.26 1005.75 1006.88 1007.81 1009.15 1009.90 1010.74
1004.90 1004.57 1003.56 1002.80 1001.23 999.22 999.03 998.98 998.65 998.81 998.26 998.64 999.54 999.36 999.59 999.35 997.98 997.06 1000.31 1000.01 999.58 999.15 998.42 997.95 997.26 996.41 995.92 996.12 996.02 996.27 997.00 997.66 999.01 999.40 999.93 1000.98 1002.20 1003.49 1004.92 1006.12 1007.36 1008.64 1009.68 1010.80
1004.97 1003.97 1002.99 1002.45 1001.00 999.64 998.96 999.54 999.63 999.32 1000.31 1002.77 1002.82 1002.59 1002.67 1001.52 1000.65 1000.56 1000.83 1001.27 1000.50 999.92 999.01 998.08 997.49 997.64 997.12 997.12 996.85 996.97 997.29 997.80 998.20 998.78 999.68 1000.99 1001.96 1003.11 1004.17 1005.24 1006.44 1007.95 1008.99 1010.36
1004.90 1003.56 1002.94 1002.15 1001.27 1001.52 1002.59 1001.98 1001.09 1002.31 1004.54 1004.20 1004.13 1004.22 1003.87 1003.84 1003.87 1003.45 1002.21 1001.37 1001.36 1000.38 999.25 998.21 997.81 997.90 997.67 997.77 997.93 997.97 998.05 997.94 998.34 998.97 999.84 1001.03 1001.86 1002.72 1003.58 1004.74 1006.00 1007.10 1008.10 1009.64
1007.16 1005.99 1004.78 1003.97 1003.57 1003.71 1003.56 1004.36 1006.82 1006.92 1006.47 1006.11 1005.98 1005.13 1004.45 1004.20 1003.14 1002.85 1002.06 1001.59 1000.76 999.66 998.52 998.18 998.13 997.44 997.15 997.46 997.87 998.03 998.88 999.08 999.22 999.91 1000.43 1001.15 1002.04 1002.94 1003.84 1004.88 1005.89 1007.30 1007.84 1009.08
1008.42 1008.73 1008.20 1007.89 1006.35 1005.69 1005.55 1005.95 1006.04 1006.45 1006.64 1006.96 1006.23 1004.88 1004.73 1004.26 1003.66 1002.81 1002.30 1002.36 1001.23 1000.23 999.26 998.64 998.04 997.09 996.49 996.91 997.60 998.07 997.97 998.49 999.48 1000.63 1001.02 1001.69 1002.18 1002.94 1004.01 1004.69 1006.06 1006.57 1008.17 1008.65
1009.20 1008.58 1008.33 1008.34 1006.84 1006.54 1005.84 1005.67 1005.60 1005.78 1006.02 1005.64 1005.36 1005.52 1005.36 1004.84 1003.84 1002.90 1002.25 1002.00 1001.28 1000.15 998.95 998.56 998.08 997.02 996.15 996.00 996.60 997.14 998.34 997.79 998.05 999.73 1000.99 1002.19 1002.84 1002.92 1003.39 1005.06 1005.91 1006.52 1007.47 1008.55
1009.86 1009.12 1008.08 1007.17 1006.81 1006.42 1006.39 1006.41 1006.95 1007.11 1007.17 1007.06 1007.01 1006.77 1006.15 1005.50 1004.54 1003.99 1002.90 1002.13 1001.21 1000.00 999.01 998.31 997.93 997.08 995.85 996.06 995.46 996.09 996.51 997.97 998.60 998.30 998.87 1000.47 1001.40 1002.65 1004.00 1004.06 1004.03 1005.14 1006.67 1007.36
1009.30 1008.83 1008.39 1007.45 1007.46 1007.84 1006.84 1007.10 1007.49 1007.91 1008.17 1008.25 1007.93 1007.18 1006.71 1006.16 1005.31 1004.68 1003.77 1002.50 1001.23 1000.29 999.56 998.57 997.64 996.55 994.96 995.32 994.84 994.68 995.68 996.68 998.01 998.44 998.35 999.07 1001.05 1002.51 1001.03 1002.13 1003.87 1004.79 1005.23 1006.26
Wind_Speed
6 5 11 22 17 6 5 6 8 19 10 10 18 18 20 20 10 12 17 18 18 19 20 10 16 17 16 15 17 19 18 16 13 9 8 6 8 5 4 5 7 7 6 6
2 11 18 3 9 9 11 14 15 15 11 11 15 21 17 12 15 16 16 19 22 17 9 9 11 14 19 19 19 19 18 17 14 10 9 5 5 3 3 3 5 7 8 7
18 11 17 12 9 10 19 14 18 19 10 6 9 11 13 12 12 15 17 20 21 17 13 8 11 17 16 19 21 20 19 19 16 13 8 4 4 3 3 4 6 6 8 8
12 12 12 7 8 13 21 10 13 11 3 14 5 17 9 8 13 11 17 19 17 11 10 8 11 12 19 19 17 19 19 19 15 15 13 12 11 10 9 9 6 5 8 7
11 4 8 13 24 11 19 3 5 2 5 6 6 9 5 10 9 11 16 18 19 12 12 12 17 20 16 16 18 17 18 17 15 17 17 13 11 8 3 4 9 6 6 8
11 1 4 8 2 6 3 1 0 3 3 14 8 10 6 8 12 7 14 14 14 11 8 10 10 10 11 11 14 15 17 18 17 18 17 19 17 10 6 8 10 8 7 7
2 14 7 6 3 2 2 5 5 5 1 16 12 13 20 7 7 12 13 14 16 8 9 10 13 13 13 14 15 14 17 17 17 19 18 19 17 15 14 13 11 12 9 6
3 15 14 9 19 12 10 12 9 8 11 22 3 11 8 13 13 11 14 15 6 9 9 12 15 14 14 17 16 16 16 17 18 18 18 15 15 12 11 12 10 11 11 10
7 12 1 2 3 9 4 7 9 1 2 2 11 14 9 4 11 11 16 3 8 9 9 10 9 12 14 15 18 19 18 18 17 18 15 16 14 16 13 12 11 10 9 8
7 12 9 4 4 1 7 2 2 2 3 8 18 5 16 14 22 19 6 10 8 6 7 8 9 13 12 14 15 15 16 19 16 16 16 15 16 16 12 11 13 11 9 10
7 7 19 5 6 10 2 5 5 2 6 15 18 16 7 5 3 3 7 8 9 8 9 10 11 10 13 9 12 14 15 16 16 15 16 16 15 14 11 12 11 11 10 11
4 4 6 10 6 4 4 9 11 10 12 5 8 15 21 12 9 5 9 6 6 7 8 10 10 12 11 13 12 17 16 17 19 17 14 14 11 11 13 12 11 10 12 10
6 4 5 10 14 4 8 7 8 7 2 13 16 17 22 23 23 10 7 10 9 9 8 7 9 11 14 14 16 17 17 20 16 14 14 13 13 14 15 13 12 12 12 11
12 10 12 17 18 10 10 11 11 15 14 24 21 29 29 34 28 25 21 25 24 23 9 11 10 10 9 12 15 15 16 17 15 16 17 17 17 16 14 13 14 14 12 13
12 12 20 26 30 29 30 29 28 26 24 21 26 22 28 33 21 26 24 25 23 19 7 9 11 10 13 14 14 15 16 15 16 17 18 18 16 15 14 15 15 13 13 10
10 16 17 24 26 30 33 32 29 31 32 29 33 33 35 35 33 32 32 23 20 19 18 13 12 14 13 14 17 17 17 16 16 18 19 16 16 16 16 16 15 14 13 12
12 8 14 27 22 25 25 36 36 32 26 24 30 36 36 31 28 30 31 22 21 22 19 10 12 11 12 12 14 15 16 12 16 16 15 16 16 16 16 15 16 16 16 13
19 16 12 16 16 23 15 21 31 35 33 34 34 29 27 29 28 28 21 16 20 22 13 9 9 11 11 8 9 10 8 13 15 14 14 15 17 17 16 15 15 14 13 14
23 23 14 18 21 24 3 12 23 19 31 27 25 23 16 22 17 23 21 15 14 15 14 13 9 7 8 9 6 7 9 11 13 15 16 16 17 17 17 17 16 13 13 11
14 19 18 20 26 30 16 9 16 10 13 14 13 15 14 16 10 10 23 21 21 19 15 10 9 9 8 8 1 6 8 10 15 14 13 13 15 16 17 17 16 13 12 11
18 14 19 21 19 13 15 21 14 8 12 23 14 12 13 12 8 15 18 24 20 12 12 14 8 5 6 2 2 2 3 12 4 8 11 12 13 16 15 15 13 14 13 13
6 5 7 6 9 9 18 10 11 11 12 12 18 13 13 14 16 14 18 21 21 20 18 11 10 11 4 5 5 5 7 2 5 7 10 11 12 10 11 14 12 13 13 13
7 3 5 6 8 16 9 18 4 6 9 9 9 16 15 17 19 18 17 19 20 17 16 16 10 13 5 5 4 6 6 9 9 8 9 10 12 11 12 14 14 12 12 12
6 10 4 12 7 20 18 14 10 15 14 17 12 13 15 19 18 21 18 18 18 17 15 14 15 13 13 6 8 11 7 11 16 12 10 9 11 11 13 9 10 10 11 10
8 10 7 13 14 15 12 10 12 14 11 13 15 17 18 17 18 19 20 20 18 20 17 14 16 16 15 7 10 11 12 13 12 13 14 15 13 14 11 9 11 11 10 11
9 13 12 15 18 8 17 13 7 7 9 10 14 17 19 20 20 20 18 18 18 18 17 18 19 18 17 17 13 11 12 14 13 12 11 12 10 10 14 14 12 18 16 18
Wind_Direction
211 145 208 224 202 223 236 255 238 268 258 203 239 240 250 254 251 240 253 257 253 244 248 214 203 187 171 166 163 168 164 171 163 167 168 167 185 178 179 181 164 163 160 165
255 217 228 217 207 226 248 259 263 277 269 196 251 251 253 239 247 242 229 249 252 251 250 236 186 175 175 169 169 169 172 172 174 172 176 168 160 180 159 163 167 171 164 170
220 221 218 223 239 261 247 247 258 254 293 237 284 265 251 245 247 251 254 248 257 249 229 222 178 181 169 171 172 173 174 175 178 173 160 98 90 77 155 195 181 187 169 171
246 232 219 193 210 207 262 224 256 270 282 272 134 290 220 239 236 238 245 253 249 234 221 201 179 177 179 179 171 172 175 178 178 170 176 181 192 190 199 191 175 166 166 168
233 212 206 225 232 195 263 208 245 227 240 315 175 283 200 191 235 243 243 250 257 237 208 188 187 189 184 167 173 175 175 179 179 180 187 190 198 198 144 142 164 165 170 169
247 315 229 208 157 189 130 122 13 28 60 263 179 211 148 191 217 230 244 250 246 239 210 192 183 152 170 169 172 174 176 185 183 183 187 194 195 179 162 171 179 182 179 177
263 220 206 148 191 315 152 83 307 318 359 257 182 221 253 285 230 214 224 237 239 167 167 164 160 171 172 179 180 180 183 188 187 191 192 193 195 186 188 182 185 176 176 183
257 287 154 188 203 189 195 181 174 213 260 277 117 250 251 226 236 225 224 224 192 174 183 178 179 182 182 185 186 188 187 192 193 196 198 195 192 193 197 191 180 186 185 182
206 261 9 170 105 146 176 178 214 358 94 338 258 273 293 294 277 274 247 217 199 201 186 187 177 187 187 190 194 190 190 200 197 199 196 197 193 199 198 191 185 184 173 164
240 270 201 155 127 360 172 175 90 252 207 242 270 256 269 284 280 279 243 216 207 199 208 200 200 202 199 198 194 196 203 203 200 197 198 198 196 199 194 181 188 179 165 153
352 282 272 107 196 178 131 254 231 262 189 246 262 272 220 195 236 305 244 220 218 214 215 213 209 215 208 192 190 198 201 201 202 200 199 197 195 191 178 187 186 174 156 157
152 306 291 256 259 240 197 212 208 236 257 230 266 265 269 313 325 330 304 265 213 203 215 221 211 212 197 194 189 202 204 203 207 201 198 199 180 176 182 185 173 159 162 162
149 208 249 295 290 218 206 208 219 244 216 244 263 263 277 281 284 287 274 274 281 277 255 224 229 217 209 205 206 206 204 210 205 190 185 187 185 183 188 180 166 163 158 161
157 197 210 238 239 272 271 268 260 251 251 255 244 259 265 263 256 266 263 254 263 272 239 231 237 233 219 216 213 211 211 209 196 188 187 188 189 187 181 172 165 164 166 163
188 232 218 229 242 252 250 254 246 242 239 238 253 247 256 262 274 263 264 265 266 270 226 230 238 226 222 219 215 215 217 202 191 190 192 194 183 179 169 169 166 164 165 164
201 234 226 238 230 235 244 248 250 249 248 252 251 255 249 261 264 270 269 278 279 274 261 235 229 238 232 219 218 215 212 201 188 193 195 183 173 172 172 171 165 162 158 158
220 219 230 247 229 235 239 232 236 241 244 243 243 238 244 260 258 261 272 275 273 274 273 249 231 227 236 231 218 216 209 180 185 192 185 175 168 170 178 170 168 170 164 158
269 264 250 262 252 237 229 221 232 245 247 251 253 259 252 256 267 267 278 301 307 300 278 262 252 253 249 239 218 218 159 175 180 182 177 171 168 173 171 169 171 167 163 162
230 246 256 259 250 258 286 221 230 234 249 261 288 288 328 349 302 275 22 357 347 343 349 329 321 293 294 268 246 167 165 166 176 185 179 175 173 170 168 171 169 167 162 163
268 249 247 251 260 263 287 27 348 326 248 19 24 14 355 352 13 339 341 334 324 321 327 338 343 331 329 319 107 158 170 170 188 186 180 172 171 170 172 168 166 165 164 162
274 286 261 258 264 274 341 9 343 269 354 318 3 2 359 348 338 303 307 306 299 283 306 318 319 290 282 266 77 251 163 206 169 146 150 163 171 172 170 160 165 161 158 155
282 313 291 323 284 274 31 52 18 298 290 320 318 335 325 310 304 296 300 297 299 309 313 309 298 300 246 187 165 181 222 95 108 143 156 165 168 165 158 159 152 163 159 161
254 10 288 308 324 304 307 318 322 315 317 301 304 314 318 315 318 314 312 306 303 304 308 303 282 291 253 191 198 225 201 149 144 156 165 166 157 157 163 161 165 159 168 172
272 315 291 306 271 297 308 318 333 354 335 329 345 338 324 309 306 304 304 295 292 295 297 301 298 284 282 200 198 223 191 174 158 163 163 163 169 166 160 164 171 169 174 179
263 299 264 278 278 296 290 317 349 322 337 340 327 315 307 311 308 304 303 300 293 297 295 288 284 285 279 257 212 209 182 179 192 178 166 174 176 173 174 180 173 172 184 191
250 261 269 279 295 307 303 325 341 352 316 310 302 303 305 307 303 302 295 298 304 300 298 289 283 279 276 273 249 218 193 183 187 189 178 175 176 201 173 166 166 183 169 178